CW8392 Weather Reports


Display with metric or nautical units.
time (UTC)temp
F
wind
direction
speed
MPH
gust
MPH
rain 1hr
in
rain 24hr
in
rain mn
in
humidity
%
barometer
mb
20180814084450 69 253 0.0 0.0 0.04 0.16 0.01 70 1013.8
20180814083952 68 292 0.0 0.0 0.04 0.16 0.01 70 1013.8
20180814083454 68 263 0.0 0.0 0.04 0.16 0.01 72 1013.7
20180814082957 68 315 0.0 0.0 0.04 0.16 0.01 72 1013.7
20180814082438 69 278 0.0 0.0 0.04 0.16 0.01 72 1013.6
20180814081959 68 266 0.0 0.0 0.04 0.16 0.01 72 1013.5
20180814081502 68 275 0.0 0.0 0.04 0.16 0.01 70 1013.5
20180814081003 68 269 0.0 0.0 0.04 0.16 0.01 72 1013.4
20180814080507 68 291 0.0 0.0 0.04 0.16 0.01 72 1013.4
20180814075951 68 304 0.0 0.0 0.04 0.16 0.01 74 1013.4
20180814075451 68 275 0.0 0.0 0.04 0.16 0.01 73 1013.3
20180814074959 68 295 0.0 0.0 0.00 0.12 0.00 75 1013.3
20180814074455 68 265 0.0 0.0 0.00 0.12 0.00 76 1013.3
20180814074014 67 267 0.0 0.0 0.00 0.12 0.00 76 1013.2
20180814073509 67 288 0.0 0.0 0.00 0.12 0.00 76 1013.2
20180814073009 67 261 0.0 0.0 0.00 0.12 0.00 77 1013.1
20180814072509 67 275 0.0 0.0 0.00 0.12 0.00 78 1013.0
20180814072010 67 235 0.0 0.0 0.00 0.12 0.00 78 1012.9
20180814071507 66 319 0.0 0.0 0.00 0.12 0.00 78 1012.9
20180814071028 66 286 0.0 0.0 0.00 0.12 0.00 81 1012.7
20180814070526 66 272 0.0 0.0 0.00 0.12 0.00 81 1012.6
20180814070024 65 305 0.0 0.0 0.00 0.12 0.00 82 1012.5
20180814065521 65 274 0.0 0.0 0.00 0.12 0.00 83 1012.5
20180814065030 65 270 0.0 0.0 0.00 0.12 0.00 84 1012.5
20180814064523 64 252 0.0 0.0 0.00 0.12 0.00 85 1012.4
20180814064025 64 314 0.0 0.0 0.00 0.12 0.00 85 1012.4
20180814063529 64 268 0.0 0.0 0.00 0.12 0.00 84 1012.4
20180814063035 64 284 0.0 0.0 0.00 0.12 0.00 84 1012.4
20180814062537 64 249 0.0 0.0 0.00 0.12 0.00 84 1012.3
20180814062044 64 273 0.0 0.0 0.00 0.12 0.00 84 1012.1
20180814061528 64 247 0.0 0.0 0.00 0.12 0.00 84 1012.1
20180814061048 64 258 0.0 0.0 0.00 0.12 0.00 84 1012.1
20180814060430 64 265 0.0 0.0 0.00 0.12 0.00 84 1012.0
20180814055932 63 251 0.0 0.0 0.00 0.12 0.00 84 1011.9
20180814055433 63 271 0.0 0.0 0.00 0.12 0.00 84 1011.9
20180814054944 63 271 0.0 0.0 0.00 0.12 0.00 84 1011.8
20180814054442 63 261 0.0 0.0 0.00 0.12 0.00 84 1011.7
20180814053942 64 249 0.0 0.0 0.00 0.12 0.00 85 1011.6
20180814053447 64 265 0.0 0.0 0.00 0.12 0.00 85 1011.6
20180814052952 64 263 0.0 0.0 0.00 0.12 0.00 85 1011.6
20180814052455 63 274 0.0 0.0 0.00 0.12 0.00 85 1011.5
20180814051959 63 279 0.0 0.0 0.00 0.12 0.00 86 1011.5
20180814051500 63 275 0.0 0.0 0.00 0.12 0.00 86 1011.4
20180814050955 63 311 0.0 0.0 0.00 0.12 0.00 87 1011.3
20180814050458 63 285 0.0 0.0 0.00 0.12 0.00 87 1011.2
20180814045958 63 301 0.0 0.0 0.00 0.12 0.00 87 1011.2
20180814045010 63 302 0.0 0.0 0.00 0.12 0.00 86 1011.0
20180814044504 63 261 0.0 0.0 0.00 0.12 0.00 86 1011.0
20180814044006 64 266 0.0 0.0 0.00 0.12 0.00 86 1010.9
20180814043506 64 277 0.0 0.0 0.00 0.12 0.00 86 1010.8
20180814043009 64 288 0.0 0.0 0.00 0.12 0.00 85 1010.7
20180814042513 64 266 0.0 0.0 0.00 0.12 0.00 85 1010.7
20180814042019 64 271 0.0 0.0 0.00 0.12 0.00 85 1010.6
20180814041521 64 229 0.0 0.0 0.00 0.12 0.00 85 1010.6
20180814041024 64 346 0.0 0.0 0.00 0.12 0.00 85 1010.6
20180814040519 64 276 0.0 0.0 0.00 0.12 0.00 86 1010.5
20180814040023 64 253 0.0 0.0 0.00 0.12 0.00 87 1010.5
20180814035522 64 294 0.0 0.0 0.00 0.12 0.00 87 1010.4
20180814035015 63 266 0.0 0.0 0.00 0.12 0.00 88 1010.3
20180814034531 63 288 0.0 0.0 0.00 0.12 0.00 88 1010.2
20180814033521 63 312 0.0 0.0 0.00 0.12 0.00 89 1010.2
20180814033024 63 344 0.0 0.0 0.00 0.12 0.00 90 1010.1
20180814032525 63 257 0.0 0.0 0.00 0.12 0.00 89 1010.1
20180814032027 63 313 0.0 0.0 0.00 0.12 0.00 90 1010.0
20180814031547 63 250 0.0 0.0 0.00 0.12 0.00 90 1010.0
20180814031044 63 265 0.0 0.0 0.00 0.12 0.00 90 1009.9
20180814030444 63 279 0.0 0.0 0.00 0.12 0.00 90 1009.9
20180814025941 64 265 0.0 0.0 0.00 0.12 0.00 90 1009.9
20180814025442 64 265 0.0 0.0 0.00 0.12 0.00 90 1009.9
20180814024938 64 304 0.0 0.0 0.00 0.12 0.00 90 1009.9
20180814024434 64 279 0.0 0.0 0.00 0.12 0.00 90 1009.8
20180814023937 64 289 0.0 0.0 0.00 0.12 0.00 91 1009.8
20180814023441 64 267 0.0 0.0 0.00 0.12 0.00 91 1009.7
20180814022939 65 269 0.0 0.0 0.00 0.12 0.00 91 1009.7
20180814022445 65 243 0.0 0.0 0.00 0.12 0.00 91 1009.6
20180814021951 65 278 0.0 0.0 0.00 0.12 0.00 91 1009.7
20180814021453 65 244 0.0 0.0 0.00 0.12 0.00 90 1009.5
20180814020959 65 273 0.0 0.0 0.00 0.12 0.00 90 1009.5
20180814020506 65 288 0.0 0.0 0.00 0.12 0.00 90 1009.5
20180814015950 65 267 327.0 327.0 0.00 0.00 0.00 90 1009.4
20180814015452 65 247 0.0 0.0 0.00 0.12 0.00 90 1009.4
20180814015002 65 268 0.0 0.0 0.00 0.12 0.00 90 1009.4
20180814014007 65 255 0.0 0.0 0.00 0.12 0.00 90 1009.2
20180814013510 65 263 0.0 0.0 0.00 0.12 0.00 90 1009.2
20180814013014 65 255 0.0 0.0 0.00 0.12 0.00 90 1009.2
20180814012513 65 230 0.0 0.0 0.00 0.12 0.00 90 1009.1
20180814012013 65 219 0.0 0.0 0.00 0.12 0.00 90 1009.1
20180814011514 65 262 0.0 0.0 0.00 0.12 0.00 90 1009.0
20180814011014 65 268 0.0 0.0 0.00 0.12 0.00 90 1009.0
20180814010514 65 240 0.0 0.0 0.00 0.12 0.00 90 1009.1
20180814010016 65 240 0.0 0.0 0.00 0.12 0.00 90 1009.1
20180814005514 65 273 0.0 0.0 0.00 0.12 0.00 90 1009.1
20180814005031 65 259 0.0 0.0 0.00 0.12 0.00 90 1009.1
20180814004524 65 229 0.0 0.0 0.00 0.12 0.00 90 1009.0
20180814004029 65 270 0.0 0.0 0.00 0.12 0.00 90 1009.0
20180814003534 65 241 0.0 0.0 0.00 0.12 0.00 90 1009.0
20180814003038 65 277 0.0 0.0 0.00 0.12 0.00 90 1009.1
20180814002525 65 248 0.0 0.0 0.00 0.12 0.00 90 1009.0
20180814002028 65 238 0.0 0.0 0.00 0.12 0.00 90 1009.1
20180814001532 65 270 0.0 0.0 0.00 0.12 0.00 90 1009.1
20180814000933 65 231 0.0 0.0 0.00 0.12 0.00 90 1009.0
20180814000435 65 244 0.0 0.0 0.00 0.12 0.00 90 1009.0
20180813235935 65 257 0.0 0.0 0.00 0.12 0.00 89 1009.0
20180813235436 65 259 0.0 0.0 0.00 0.12 0.00 89 1009.0
20180813234948 65 229 0.0 0.0 0.00 0.12 0.00 89 1009.0
20180813234452 65 184 0.0 0.0 0.00 0.12 0.00 89 1008.9
20180813233954 65 272 0.0 0.0 0.00 0.12 0.00 89 1008.8
20180813233456 65 257 0.0 0.0 0.00 0.12 0.00 89 1008.8
20180813232939 65 223 0.0 0.0 0.00 0.12 0.00 89 1008.7
20180813232443 65 260 0.0 0.0 0.00 0.12 0.00 89 1008.7
20180813232002 65 213 0.0 0.0 0.00 0.12 0.00 89 1008.7
20180813231446 65 232 0.0 0.0 0.00 0.12 0.00 89 1008.6
20180813230951 65 227 0.0 0.0 0.00 0.12 0.00 88 1008.7
20180813230456 65 221 0.0 0.0 0.00 0.12 0.00 88 1008.6
20180813225959 65 221 0.0 0.0 0.00 0.12 0.00 88 1008.6
20180813225501 65 221 0.0 0.0 0.00 0.12 0.00 88 1008.5
20180813225013 65 221 0.0 0.0 0.00 0.12 0.00 88 1008.5
20180813224510 65 248 0.0 0.0 0.00 0.12 0.00 87 1008.4
20180813224015 65 264 0.0 0.0 0.00 0.12 0.00 87 1008.4
20180813223516 65 266 0.0 0.0 0.00 0.12 0.00 87 1008.4
20180813223020 65 266 0.0 0.0 0.00 0.12 0.00 87 1008.3
20180813222504 65 238 0.0 0.0 0.00 0.12 0.00 87 1008.3
20180813222029 65 205 0.0 0.0 0.00 0.12 0.00 87 1008.3
20180813221509 65 240 0.0 0.0 0.00 0.12 0.00 87 1008.3
20180813221031 65 227 0.0 0.0 0.00 0.12 0.02 87 1008.2
20180813220532 65 250 0.0 0.0 0.00 0.12 0.02 87 1008.2
20180813220014 65 237 0.0 0.0 0.00 0.12 0.02 87 1008.1
20180813215518 65 262 0.0 0.0 0.00 0.12 0.02 87 1008.1
20180813214521 65 225 0.0 0.0 0.00 0.12 0.02 87 1008.0
20180813214024 65 207 0.0 0.0 0.00 0.12 0.02 87 1008.0
20180813213525 65 223 0.0 0.0 0.00 0.12 0.02 87 1007.9
20180813213045 65 246 0.0 0.0 0.00 0.12 0.02 87 1008.0
20180813212527 65 213 0.0 0.0 0.00 0.12 0.02 88 1008.0
20180813212029 65 233 0.0 0.0 0.00 0.12 0.02 88 1007.9
20180813211531 65 232 0.0 0.0 0.00 0.12 0.02 88 1007.9
20180813211116 65 246 0.0 0.0 0.00 0.12 0.02 88 1007.9
20180813210928 65 246 0.0 0.0 0.00 0.12 0.02 88 1007.9
20180813210432 64 246 0.0 0.0 0.00 0.12 0.02 88 1007.8
20180813205431 64 246 0.0 0.0 0.00 0.12 0.02 88 1007.8
20180813204947 64 246 0.0 0.0 0.00 0.12 0.02 87 1007.7
20180813204442 64 252 0.0 0.0 0.00 0.12 0.02 87 1007.7
20180813203940 64 248 0.0 0.0 0.00 0.12 0.02 87 1007.7
20180813203440 64 223 0.0 0.0 0.00 0.12 0.02 87 1007.7
20180813202942 64 239 0.0 0.0 0.00 0.12 0.02 87 1007.7
20180813202503 64 232 0.0 0.0 0.04 0.12 0.02 87 1007.7
20180813202001 64 248 0.0 0.0 0.04 0.12 0.02 87 1007.7
20180813201500 64 256 0.0 0.0 0.04 0.12 0.02 86 1007.7
20180813201000 64 225 0.0 0.0 0.04 0.12 0.02 86 1007.6
20180813200504 64 234 0.0 0.0 0.04 0.12 0.02 86 1007.7
20180813200008 64 255 0.0 0.0 0.04 0.12 0.02 86 1007.6
20180813195507 64 254 0.0 0.0 0.04 0.12 0.02 86 1007.5
20180813195016 64 259 0.0 0.0 0.04 0.12 0.02 85 1007.5
20180813194511 65 259 0.0 0.0 0.04 0.12 0.02 85 1007.4
20180813194004 65 242 0.0 0.0 0.04 0.12 0.02 85 1007.4
20180813193502 65 246 0.0 0.0 0.04 0.12 0.02 85 1007.4
20180813193007 65 257 0.0 0.0 0.04 0.12 0.02 85 1007.3
20180813192509 65 254 0.0 0.0 0.00 0.08 0.02 84 1007.2
20180813192009 65 230 0.0 0.0 0.00 0.08 0.02 84 1007.3
20180813191510 65 277 0.0 0.0 0.00 0.08 0.02 84 1007.3
20180813191011 65 265 0.0 0.0 0.00 0.08 0.02 84 1007.3
20180813190522 65 245 0.0 0.0 0.00 0.08 0.02 84 1007.3
20180813190025 65 245 0.0 0.0 0.00 0.08 0.02 84 1007.3
20180813185512 66 269 0.0 0.0 0.00 0.08 0.02 84 1007.3
20180813185020 66 262 0.0 0.0 0.00 0.08 0.02 84 1007.3
20180813184528 66 242 0.0 0.0 0.00 0.08 0.02 84 1007.2
20180813184032 66 250 0.0 0.0 0.00 0.08 0.02 82 1007.1
20180813183532 67 279 0.0 0.0 0.00 0.08 0.02 81 1007.1
20180813183035 67 243 0.0 0.0 0.00 0.08 0.02 80 1007.1
20180813182537 67 249 0.0 0.0 0.00 0.08 0.02 79 1007.0
20180813182042 67 262 0.0 0.0 0.00 0.08 0.02 78 1006.9
20180813181543 67 236 0.0 0.0 0.00 0.08 0.02 78 1006.9
20180813180927 67 259 0.0 0.0 0.00 0.08 0.02 77 1006.8
20180813180430 67 255 0.0 0.0 0.00 0.08 0.02 77 1006.7
20180813175928 68 273 0.0 0.0 0.00 0.08 0.02 77 1006.7
20180813175447 68 280 0.0 0.0 0.00 0.08 0.02 76 1006.8
20180813174935 68 244 0.0 0.0 0.00 0.08 0.02 76 1006.6
20180813174448 68 263 0.0 0.0 0.00 0.08 0.02 76 1006.6
20180813173952 68 259 0.0 0.0 0.00 0.08 0.02 76 1006.6
20180813173456 68 269 0.0 0.0 0.00 0.08 0.02 76 1006.5
20180813172939 68 263 0.0 0.0 0.00 0.08 0.02 77 1006.5
20180813172441 68 240 0.0 0.0 0.00 0.08 0.02 77 1006.5
20180813171959 68 257 0.0 0.0 0.00 0.08 0.02 77 1006.4
20180813171501 68 295 0.0 0.0 0.00 0.08 0.02 77 1006.4
20180813170955 68 257 0.0 0.0 0.00 0.08 0.02 76 1006.4
20180813170459 68 265 0.0 0.0 0.00 0.08 0.02 76 1006.3
20180813165959 68 278 0.0 0.0 0.00 0.08 0.02 77 1006.3
20180813165459 68 267 0.0 0.0 0.00 0.08 0.02 78 1006.3
20180813165009 68 259 0.0 0.0 0.00 0.08 0.02 79 1006.2
20180813164504 68 293 0.0 0.0 0.00 0.08 0.02 79 1006.2
20180813164009 68 259 0.0 0.0 0.00 0.08 0.02 79 1006.2
20180813163511 68 295 0.0 0.0 0.00 0.08 0.02 79 1006.1
20180813163017 68 278 0.0 0.0 0.00 0.08 0.02 80 1006.1
20180813162517 68 291 0.0 0.0 0.00 0.08 0.02 79 1006.1
20180813162025 68 280 0.0 0.0 0.00 0.08 0.02 77 1006.2
20180813161526 68 325 0.0 0.0 0.00 0.08 0.02 78 1006.1
20180813161009 68 221 0.0 0.0 0.00 0.08 0.02 78 1006.0
20180813160515 68 319 0.0 0.0 0.00 0.08 0.02 78 1006.0
20180813160022 68 278 0.0 0.0 0.00 0.08 0.02 77 1006.0
20180813155521 68 284 0.0 0.0 0.00 0.08 0.02 77 1006.0
20180813155034 68 274 0.0 0.0 0.00 0.08 0.02 77 1005.9
20180813154520 68 303 0.0 0.0 0.00 0.08 0.02 77 1005.8
20180813154023 68 239 0.0 0.0 0.00 0.08 0.02 76 1005.8
20180813153527 68 281 0.0 0.0 0.04 0.08 0.02 76 1005.8
20180813153029 68 263 0.0 0.0 0.04 0.08 0.02 77 1005.7
20180813152532 68 304 0.0 0.0 0.04 0.08 0.02 77 1005.8
20180813152028 68 255 0.0 0.0 0.04 0.08 0.02 77 1005.8
20180813150928 68 194 0.0 0.0 0.04 0.08 0.02 75 1005.8
20180813150431 69 140 0.0 0.0 0.04 0.08 0.02 76 1005.8
20180813145935 69 276 0.0 0.0 0.04 0.08 0.02 76 1005.7
20180813145436 69 204 0.0 0.0 0.04 0.08 0.02 75 1005.6
20180813144947 69 250 0.0 0.0 0.04 0.08 0.02 76 1005.7
20180813144444 69 263 0.0 0.0 0.04 0.08 0.02 76 1005.6
20180813143940 69 237 0.0 0.0 0.00 0.04 0.01 76 1005.6
20180813143439 69 259 0.0 0.0 0.00 0.04 0.01 76 1005.6
20180813142943 69 223 0.0 0.0 0.00 0.04 0.01 76 1005.6
20180813142446 69 242 0.0 0.0 0.00 0.04 0.01 76 1005.6
20180813141947 69 250 0.0 0.0 0.00 0.04 0.01 77 1005.6
20180813141446 69 248 0.0 0.0 0.00 0.04 0.01 79 1005.6
20180813140950 69 263 0.0 0.0 0.00 0.04 0.01 80 1005.6
20180813140455 68 188 0.0 0.0 0.00 0.04 0.01 81 1005.5
20180813135954 68 276 0.0 0.0 0.00 0.04 0.01 83 1005.6
20180813135456 68 246 0.0 0.0 0.00 0.04 0.01 83 1005.5
20180813135006 68 240 0.0 0.0 0.00 0.04 0.01 83 1005.6
20180813134501 68 244 0.0 0.0 0.00 0.04 0.01 82 1005.5
20180813134001 69 238 0.0 0.0 0.04 0.04 0.01 81 1005.5
20180813133502 69 234 0.0 0.0 0.04 0.04 0.01 80 1005.5
20180813133021 70 259 0.0 0.0 0.04 0.04 0.01 79 1005.5
20180813132521 70 198 0.0 0.0 0.04 0.04 0.01 77 1005.5
20180813132020 71 215 0.0 0.0 0.04 0.04 0.01 75 1005.5
20180813131516 70 271 0.0 0.0 0.04 0.04 0.01 75 1005.4
20180813131015 70 270 0.0 0.0 0.04 0.04 0.01 74 1005.5
20180813130518 70 263 0.0 0.0 0.04 0.04 0.01 75 1005.5
20180813130018 70 289 0.0 0.0 0.04 0.04 0.01 76 1005.5
20180813125516 69 222 0.0 0.0 0.04 0.04 0.01 78 1005.5
20180813125020 69 232 0.0 0.0 0.04 0.04 0.01 78 1005.4
20180813124533 68 221 0.0 0.0 0.04 0.04 0.01 81 1005.4
20180813124032 68 213 0.0 0.0 0.00 0.00 0.00 84 1005.4
20180813123532 68 268 0.0 0.0 0.00 0.00 0.00 86 1005.4
20180813123034 68 263 0.0 0.0 0.00 0.00 0.00 86 1005.3
20180813122537 67 250 0.0 0.0 0.00 0.00 0.00 86 1005.3
20180813122043 67 267 0.0 0.0 0.00 0.00 0.00 86 1005.3
20180813121426 67 325 0.0 0.0 0.00 0.00 0.00 87 1005.2
20180813120937 67 252 0.0 0.0 0.00 0.00 0.00 86 1005.3
20180813120440 67 274 0.0 0.0 0.00 0.00 0.00 84 1005.2
20180813115928 68 265 0.0 0.0 0.00 0.00 0.00 83 1005.4
20180813115445 68 243 0.0 0.0 0.00 0.00 0.00 81 1005.4
20180813114938 69 240 0.0 0.0 0.00 0.00 0.00 79 1005.3
20180813114434 70 250 0.0 0.0 0.00 0.00 0.00 78 1005.3
20180813113953 71 268 0.0 0.0 0.00 0.00 0.00 75 1005.0
20180813113453 72 225 0.0 0.0 0.00 0.00 0.00 71 1004.9
20180813112957 73 244 0.0 0.0 0.00 0.00 0.00 70 1004.9
20180813112500 73 223 0.0 0.0 0.00 0.00 0.00 71 1004.9
20180813112002 73 257 0.0 0.0 0.00 0.00 0.00 73 1005.0
20180813111447 72 206 0.0 0.0 0.00 0.00 0.00 73 1005.0
20180813110951 72 201 0.0 0.0 0.00 0.00 0.00 74 1005.0
20180813110452 72 195 0.0 0.0 0.00 0.00 0.00 73 1005.1
20180813105957 72 212 0.0 0.0 0.00 0.00 0.00 73 1005.1
20180813105500 72 215 0.0 0.0 0.00 0.00 0.00 73 1005.1
20180813105015 72 216 0.0 0.0 0.00 0.00 0.00 72 1005.1
20180813104509 72 216 0.0 0.0 0.00 0.00 0.00 71 1005.1
20180813104011 72 230 0.0 0.0 0.00 0.00 0.00 70 1005.2
20180813103508 73 227 0.0 0.0 0.00 0.00 0.00 69 1005.2
20180813103012 73 212 0.0 0.0 0.00 0.00 0.00 70 1005.2
20180813102514 72 213 0.0 0.0 0.00 0.00 0.00 72 1005.2
20180813102016 71 232 0.0 0.0 0.00 0.00 0.00 74 1005.2
20180813101517 71 217 0.0 0.0 0.00 0.00 0.00 75 1005.2
20180813101024 71 146 0.0 0.0 0.00 0.00 0.00 77 1005.1
20180813100517 70 211 0.0 0.0 0.00 0.00 0.00 78 1005.2
20180813100023 70 241 0.0 0.0 0.00 0.00 0.00 78 1005.3
20180813095525 70 204 0.0 0.0 0.00 0.00 0.00 80 1005.2
20180813095019 69 242 0.0 0.0 0.00 0.00 0.00 80 1005.3
20180813094539 69 211 0.0 0.0 0.00 0.00 0.00 80 1005.4
20180813094042 69 250 0.0 0.0 0.00 0.00 0.00 79 1005.5
20180813093525 69 205 0.0 0.0 0.00 0.00 0.00 78 1005.5
20180813093028 69 227 0.0 0.0 0.00 0.00 0.00 78 1005.5
20180813092532 69 213 0.0 0.0 0.00 0.00 0.00 79 1005.5
20180813092036 69 242 0.0 0.0 0.00 0.00 0.00 79 1005.5
20180813091435 69 232 0.0 0.0 0.00 0.00 0.00 81 1005.4
20180813090937 69 217 0.0 0.0 0.00 0.00 0.00 81 1005.5
20180813090439 69 194 0.0 0.0 0.00 0.00 0.00 82 1005.5
20180813085937 69 219 0.0 0.0 0.00 0.00 0.00 83 1005.4
20180813085439 69 221 0.0 0.0 0.00 0.00 0.00 84 1005.4
20180813084954 68 186 0.0 0.0 0.00 0.00 0.00 85 1005.4